This is the latest recevied weather packets stored in our database for station/object DB0RV-13. If no packets are shown the sender has not sent any weather packets the latest 10 day(s).
| Time | Temp. | Humidity | Pressure | Rain* | Wind** | Luminosity | Snow |
|---|---|---|---|---|---|---|---|
| 1777206902 | 17.22° C | 26% | 1019.6 hPa | - | - | - | - |
| 1777206602 | 17.78° C | 26% | 1019.7 hPa | - | - | - | - |
| 1777206301 | 17.78° C | 27% | 1019.7 hPa | - | - | - | - |
| 1777206002 | 17.78° C | 27% | 1019.6 hPa | - | - | - | - |
| 1777205702 | 17.78° C | 29% | 1019.6 hPa | - | - | - | - |
| 1777205402 | 17.22° C | 28% | 1019.7 hPa | - | - | - | - |
| 1777205102 | 17.22° C | 30% | 1019.7 hPa | - | - | - | - |
| 1777204802 | 17.78° C | 29% | 1019.6 hPa | - | - | - | - |
| 1777204502 | 17.22° C | 27% | 1019.8 hPa | - | - | - | - |
| 1777204203 | 17.78° C | 28% | 1019.9 hPa | - | - | - | - |
| 1777203902 | 17.22° C | 30% | 1019.8 hPa | - | - | - | - |
| 1777203602 | 17.78° C | 28% | 1019.9 hPa | - | - | - | - |
| 1777203302 | 17.78° C | 29% | 1019.8 hPa | - | - | - | - |
| 1777203001 | 17.78° C | 30% | 1019.8 hPa | - | - | - | - |
| 1777202702 | 17.22° C | 29% | 1020 hPa | - | - | - | - |
| 1777202403 | 17.22° C | 31% | 1020 hPa | - | - | - | - |
| 1777202102 | 17.22° C | 29% | 1020 hPa | - | - | - | - |
| 1777201802 | 17.78° C | 30% | 1020.2 hPa | - | - | - | - |
| 1777201502 | 16.67° C | 30% | 1020.2 hPa | - | - | - | - |
| 1777201204 | 17.22° C | 30% | 1020.1 hPa | - | - | - | - |
| 1777200901 | 17.22° C | 28% | 1020.2 hPa | - | - | - | - |
| 1777200602 | 16.67° C | 29% | 1020.3 hPa | - | - | - | - |
| 1777200301 | 16.11° C | 29% | 1020.3 hPa | - | - | - | - |
| 1777200002 | 16.11° C | 30% | 1020.2 hPa | - | - | - | - |
| 1777199701 | 16.67° C | 31% | 1020.3 hPa | - | - | - | - |
* Rain since midnight (hover to see other rain measurements)
** Current wind speed in m/s (hover to see current wind gust speed)